This is the latest recevied weather packets stored in our database for station/object CE4TQY-10. If no packets are shown the sender has not sent any weather packets the latest 10 day(s).
| Time | Temp. | Humidity | Pressure | Rain* | Wind** | Luminosity | Snow |
|---|---|---|---|---|---|---|---|
| 1777698977 | 11.11° C | 85% | 1023.5 hPa | - | - | - | - |
| 1777698076 | 11.11° C | 85% | 1023.6 hPa | - | - | - | - |
| 1777697175 | 11.11° C | 85% | 1023.8 hPa | - | - | - | - |
| 1777696274 | 10.56° C | 86% | 1023.9 hPa | - | - | - | - |
| 1777695373 | 10.56° C | 86% | 1024 hPa | - | - | - | - |
| 1777694472 | 10.56° C | 86% | 1024 hPa | - | - | - | - |
| 1777693572 | 11.11° C | 86% | 1024.1 hPa | - | - | - | - |
| 1777692671 | 11.11° C | 85% | 1024.3 hPa | - | - | - | - |
| 1777691770 | 11.11° C | 85% | 1024.3 hPa | - | - | - | - |
| 1777690869 | 11.11° C | 85% | 1024.5 hPa | - | - | - | - |
| 1777689968 | 11.11° C | 85% | 1024.6 hPa | - | - | - | - |
| 1777689067 | 11.11° C | 85% | 1024.8 hPa | - | - | - | - |
| 1777688166 | 11.11° C | 84% | 1024.8 hPa | - | - | - | - |
| 1777687265 | 11.11° C | 84% | 1024.8 hPa | - | - | - | - |
| 1777686364 | 11.11° C | 84% | 1024.8 hPa | - | - | - | - |
| 1777685464 | 11.67° C | 83% | 1024.7 hPa | - | - | - | - |
| 1777684563 | 11.67° C | 83% | 1024.7 hPa | - | - | - | - |
| 1777683662 | 11.67° C | 82% | 1024.7 hPa | - | - | - | - |
| 1777682761 | 11.67° C | 81% | 1024.6 hPa | - | - | - | - |
| 1777681860 | 12.22° C | 80% | 1024.6 hPa | - | - | - | - |
| 1777680959 | 12.22° C | 79% | 1024.5 hPa | - | - | - | - |
| 1777680058 | 12.22° C | 79% | 1024.3 hPa | - | - | - | - |
| 1777679158 | 12.78° C | 78% | 1024.3 hPa | - | - | - | - |
| 1777678257 | 12.78° C | 78% | 1024.2 hPa | - | - | - | - |
| 1777677355 | 12.78° C | 78% | 1024.1 hPa | - | - | - | - |
* Rain since midnight (hover to see other rain measurements)
** Current wind speed in m/s (hover to see current wind gust speed)